Location: Haram ta Haram Freeway
(35.0583°N, 51.4202°E)
Time: 06:54:49
(UTC+04:30)

Hubble Space Telescope - Pass Details

Date: 26 July 2021
Orbit: 535 x 539 km, 28.5° (Epoch: 19 September)

Event Time Altitude Azimuth Distance (km) Brightness Sun altitude
Rises 21:38:25 0° 253° (WSW) 2,664 4.8 -15.9°
Reaches altitude 10° 21:40:50 10° 244° (WSW) 1,774 3.7 -16.3°
Maximum altitude 21:44:31 32° 180° (S) 917 1.6 -16.9°
Enters shadow 21:45:02 31° 164° (SSE) 942 1.5 -17.0°
